Welcome to the New NWS' Forecast!
Most changes are behind the scenes, but click here for differences you might notice.
Latest weather observations around

Bedford, Hanscom Field (KBED)

Using English Units (Switch to International System of Units)
Date/ Time (EST) Wind (mph) Vis. (mi) Weather Sky Cond. Temp (°F) Rel. Humidity Wind Chill (°F) Heat Index (°F) Pressure Precip. (in)
Air Dwpt 6 hour Altimeter (inHg) Sea level (inHg) 1 hr 3 hr 6 hr
Max Min
Nov 19 13:56 NNW 3 4 Fog/Mist OVC003 37 34     89% 35   30.05 30.1      
Nov 19 12:56 N 5 4 Fog/Mist OVC003 37 33     85% 33   30.06 30.11 0   0
Nov 19 12:03 Calm 8 Light Rain OVC004 36 33     89%     30.08   0    
Nov 19 11:56 NNW 3 2 Light Rain and Fog/Mist OVC004 35 33     92% 32   30.08 30.13 0    
Nov 19 11:52 NW 3 2 Light Rain and Fog/Mist OVC004 36 34     93% 33   30.09   0    
Nov 19 11:31 N 5 2 Light Rain and Fog/Mist OVC005 35 32     88% 31   30.1   0    
Nov 19 11:03 NW 5 2 Light Rain and Fog/Mist OVC004 35 32     88% 31   30.12   0    
Nov 19 10:56 WNW 5 1.5 Light Rain and Fog/Mist OVC004 35 32     88% 31   30.12 30.17 0    
Nov 19 09:56 NW 3 1.5 Light Rain and Fog/Mist OVC004 35 32     88% 32   30.14 30.18 0 0  
Nov 19 08:56 Calm 1.5 Light Rain and Fog/Mist OVC004 34 32     92%     30.15 30.19 0    
Nov 19 07:56 WNW 3 2 Light Rain and Fog/Mist OVC004 34 31     88% 31   30.16 30.2 0    
Nov 19 06:56 N 3 4 Light Rain and Fog/Mist OVC008 34 31     88% 31   30.17 30.21 0   0
Nov 19 06:45 Calm 4 Light Rain and Fog/Mist OVC008 34 31     88%     30.17   0    
Nov 19 05:56 Calm 6 Light Rain and Fog/Mist SCT005 OVC025 33 31     92%     30.17 30.22 0    
Nov 19 05:31 Calm 6 Light Rain and Fog/Mist FEW006 SCT024 OVC029 34 31     88%     30.17   0    
Nov 19 05:18 Calm 10 Light Freezing Rain FEW022 OVC029 34 31     88%     30.17   0    
Nov 19 05:07 Calm 10 Light Rain OVC029 34 30     85%     30.18   0    
Nov 19 04:56 Calm 10 Cloudy OVC030 34 31     88%     30.18 30.22 0    
Nov 19 04:31 Calm 10 Cloudy OVC029 34 30     85%     30.18   0    
Nov 19 03:56 Calm 9 Light Freezing Rain SCT023 OVC028 33 30     88%     30.19 30.23 0 0  
Nov 19 02:56 N 3 7 Light Freezing Rain OVC023 33 30     88% 30   30.21 30.25 0    
Nov 19 02:32 N 5 8 Light Freezing Rain OVC019 33 29     85% 29   30.22   0    
Nov 19 01:56 N 3 5 Light Snow OVC026 33 28     82% 30   30.22 30.27 0    
Nov 19 01:54 N 3 4 Light Snow OVC026 34 28     80% 31   30.22   0    
Nov 19 01:26 Calm 4 Light Snow FEW024 OVC033 33 28     82%     30.23   0    
Nov 19 01:18 Calm 2.5 Light Snow BKN035 OVC070 34 27     75%     30.23   0    
Nov 19 00:56 W 3 8 Light Snow FEW020 BKN035 OVC070 34 27     75% 31   30.23 30.28 0   0
Nov 19 00:51 W 3 4 Light Snow FEW027 BKN035 OVC070 34 27     75% 31   30.23   0    
Nov 19 00:44 Calm 2.5 Light Snow OVC030 35 26     69%     30.23   0    
Nov 19 00:28 Calm 10 Cloudy BKN028 BKN035 OVC070 36 24     62%     30.24        
Nov 18 23:56 Calm 10 Cloudy BKN045 OVC060 37 24     59%     30.25 30.29      
Nov 18 22:56 Calm 10 Cloudy OVC039 36 26     67%     30.26 30.31      
Nov 18 21:56 Calm 10 Cloudy OVC040 36 26     67%     30.27 30.31      
Nov 18 20:56 Calm 10 Cloudy OVC046 36 26     67%     30.28 30.33      
Nov 18 19:56 Calm 10 Cloudy OVC050 37 23     56%     30.29 30.34      
Nov 18 18:56 W 5 10 Cloudy OVC060 37 23     56% 33   30.3 30.35      
Nov 18 17:56 Calm 10 Cloudy OVC090 38 24     57%     30.31 30.35      
Nov 18 16:56 SW 5 10 Cloudy OVC095 38 25     59% 34   30.31 30.36      
Nov 18 15:56 S 7 10 Cloudy OVC070 40 24     53% 35   30.3 30.35      
Nov 18 14:56 Calm 10 Cloudy BKN038 OVC070 40 25     55%     30.3 30.35      
Nov 18 13:56 Calm 10 Cloudy SCT034 OVC080 39 24     55%     30.31 30.35      
Nov 18 12:56 Calm 10 Cloudy FEW034 OVC100 39 23     52%     30.32 30.37      
Nov 18 11:56 Calm 10 Cloudy FEW030 OVC110 38 22     52%     30.34 30.39      
Nov 18 10:56 N 5 10 Mostly Cloudy FEW030 BKN120 38 23     55% 34   30.36 30.41      
Nov 18 09:56 N 5 10 Mostly Clear FEW030 38 23     55% 34   30.37 30.42      
Nov 18 08:56 N 5 10 Partly Cloudy FEW030 SCT042 37 24     59% 33   30.38 30.42      
Nov 18 07:56 N 5 10 Cloudy BKN032 OVC041 36 25     64% 32   30.36 30.41      
Nov 18 06:56 N 3 10 Cloudy BKN032 OVC044 36 26     67% 33   30.35 30.39      
Nov 18 05:56 N 5 10 Cloudy BKN032 OVC042 36 26     67% 32   30.32 30.36      
Nov 18 04:56 WSW 5 10 Cloudy FEW038 OVC047 36 26     67% 32   30.29 30.34      
Nov 18 03:56 WSW 5 10 Cloudy OVC043 36 26     67% 32   30.26 30.31      
Nov 18 02:56 WSW 5 10 Cloudy OVC043 37 25     61% 33   30.25 30.29      
Nov 18 01:56 WNW 6 10 Cloudy OVC050 37 25     61% 32   30.24 30.28      
Nov 18 00:56 WSW 6 10 Cloudy OVC050 37 24     59% 32   30.22 30.26      
Nov 17 23:56 SW 3 10 Mostly Clear FEW050 38 23     55% 36   30.2 30.24      
Nov 17 22:56 W 6 10 Mostly Cloudy BKN050 39 24     55% 35   30.19 30.24      
Nov 17 21:56 W 11 10 Mostly Cloudy BKN050 40 24     53% 33   30.18 30.22      
Nov 17 20:56 W 14 10 Partly Cloudy SCT049 41 25     53% 33   30.16 30.2      
Nov 17 19:56 W 9 10 Mostly Cloudy BKN050 42 25     50% 37   30.15 30.19      
Nov 17 18:56 W 13 10 Mostly Cloudy BKN050 42 25     50% 35   30.14 30.18      
Nov 17 17:56 W 11 10 Mostly Cloudy BKN050 43 26     51% 37   30.12 30.16      
Nov 17 16:56 SW 5 10 Cloudy OVC050 42 29     59% 39   30.1 30.14      
Nov 17 15:56 WSW 6 10 Cloudy OVC050 43 29     57% 39   30.09 30.13      
Nov 17 14:56 W 13 10 Cloudy OVC050 44 29     55% 38   30.07 30.11      
Nov 17 13:56 W 13 10 Mostly Cloudy BKN050 45 29     53% 39   30.04 30.08      
Nov 17 12:56 W 14 10 Mostly Cloudy BKN047 45 28     51% 39   30.03 30.07      
Nov 17 11:56 WSW 10 10 Partly Cloudy FEW049 SCT055 45 30     56% 40   30.03 30.07      
Nov 17 10:56 W 10 10 Partly Cloudy SCT055 44 31     60% 39   30.03 30.07      
Nov 17 09:56 W 10 10 Mostly Cloudy BKN055 44 31     60% 39   30.04 30.08      
Nov 17 08:56 SW 10 10 Mostly Cloudy BKN049 41 31     67% 35   30.03 30.07      
Nov 17 07:56 SSW 7 10 Cloudy OVC046 40 30     67% 35   30.01 30.06      
Nov 17 06:56 SW 10 10 Cloudy OVC047 39 30     70% 32   29.97 30.02      
Nov 17 05:56 SW 5 10 Cloudy OVC046 39 30     70% 36   29.93 29.98      
Nov 17 04:56 WSW 8 10 Cloudy OVC047 39 29     67% 33   29.91 29.95      
Nov 17 03:56 SW 8 10 Mostly Cloudy BKN049 37 29     72% 31   29.88 29.92      
Nov 17 02:56 SW 8 10 Clear CLR 37 28     70% 31   29.84 29.89      
Nov 17 01:56 SW 10 10 Clear CLR 37 29     72% 30   29.82 29.87      
Nov 17 00:56 SW 6 10 Clear CLR 35 28     75% 30   29.8 29.85      
Nov 16 23:56 SSW 7 10 Clear CLR 31 26     82% 24   29.79 29.83      
Nov 16 22:56 SW 6 10 Mostly Cloudy BKN050 35 28     75% 30   29.76 29.81      
Nov 16 21:56 SW 7 10 Mostly Clear FEW100 34 27     75% 28   29.74 29.79      
Nov 16 20:56 SW 3 10 Mostly Clear FEW100 34 28     79% 31   29.73 29.77      
Nov 16 19:56 SW 7 10 Mostly Clear FEW100 34 28     79% 28   29.71 29.75      
Nov 16 18:56 SW 7 10 Mostly Clear FEW100 33 27     78% 27   29.69 29.74     0
Nov 16 17:56 WSW 6 10 Mostly Clear FEW100 34 27     75% 29   29.68 29.72      
Nov 16 16:56 W 6 10 Partly Cloudy SCT050 SCT120 35 27     72% 30   29.65 29.69      
Nov 16 15:56 W 7 10 Cloudy FEW019 OVC046 36 29     75% 30   29.65 29.69 0 0  
Nov 16 14:56 W 7 10 Cloudy SCT019 OVC025 36 29     75% 30   29.6 29.65      
Nov 16 13:56 NW 13 10 Cloudy OVC017 35 28     75% 26   29.54 29.58 0    
Nov 16 13:10 NW 15 6 Clear   34 32     92% 24   29.53   0    
Nov 16 12:56 NW 15 10 Clear   33 32     96% 23   29.53 29.57 0   0
Nov 16 11:56 NW 16 10 Cloudy OVC010 33 33     100% 23   29.48 29.53 0    
Nov 16 11:26 N 15 10 Cloudy OVC010 34 33     96% 24   29.43   0    
Nov 16 10:56 NNW 18 10 Light Rain OVC008 33 32     96% 22   29.46 29.51 0    
Nov 16 10:53 NNW 21 10 Light Rain OVC004 34 34     100% 22   29.47   0    
Nov 16 09:56 NNW 15 5 Light Rain and Fog/Mist OVC006 36 36     100% 27   29.46 29.5 0 0  
Nov 16 08:56 N 14 2 Light Rain and Fog/Mist OVC004 39 39     100% 31   29.5 29.55 0    
Nov 16 08:53 N 14 2 Light Rain and Fog/Mist OVC004 39 39     100% 31   29.51   0    
Nov 16 08:42 N 11 2 Rain and Fog/Mist OVC007 39 39     100% 32   29.52   0    
Nov 16 07:56 N 13 1.5 Light Rain and Fog/Mist OVC008 39 38     96% 31   29.53 29.57 0    
Nov 16 06:56 NE 13 1.5 Light Rain and Fog/Mist OVC006 38 37     97% 30   29.57 29.62 0   1
Nov 16 05:56 ENE 14 2.5 Light Rain and Fog/Mist BKN007 OVC011 39 37     93% 31   29.63 29.68 0    
Nov 16 05:24 NE 10 2.5 Light Rain and Fog/Mist OVC007 37 36     96% 30   29.65   0    
Nov 16 05:09 NE 14 3 Light Rain and Fog/Mist OVC007 37 35     92% 28   29.67   0    
Nov 16 04:56 ENE 13 2.5 Light Rain and Fog/Mist BKN008 OVC011 36 35     96% 27   29.68 29.73 0    
Nov 16 04:51 NE 13 2.5 Light Rain and Fog/Mist BKN008 OVC011 36 36     100% 27   29.69   0    
Nov 16 03:56 NE 11 3 Light Rain and Fog/Mist OVC009 35 33     92% 27   29.78 29.82 0 0  
Nov 16 03:15 ENE 11 4 Light Rain and Fog/Mist BKN008 OVC012 35 32     88% 27   29.83   0    
Nov 16 02:56 ENE 14 4 Light Rain and Fog/Mist BKN010 OVC014 35 31     85% 26   29.85 29.9 0    
Nov 16 02:40 ENE 15 3 Light Rain and Fog/Mist BKN009 OVC013 35 31     85% 26   29.87   0    
Nov 16 02:30 ENE 16 3 Light Rain and Fog/Mist BKN010 OVC013 34 31     88% 24   29.88   0    
Nov 16 02:06 ENE 17 4 Light Rain and Fog/Mist BKN008 OVC014 34 31     88% 23   29.91   0    
Nov 16 01:56 ENE 15 2.5 Light Snow and Fog/Mist BKN008 OVC013 34 31     88% 24   29.93 29.97 0    
Nov 16 01:48 ENE 18 3 Light Snow and Fog/Mist BKN008 OVC013 34 31     88% 23   29.93   0    
Nov 16 01:37 ENE 17 2 Light Snow and Fog/Mist BKN008 OVC013 34 31     88% 23   29.95   0    
Nov 16 01:26 ENE 20 4 Light Snow and Fog/Mist BKN008 OVC013 34 31     88% 23   29.96   0    
Nov 16 01:13 ENE 17 2 Light Snow and Fog/Mist BKN007 OVC010 34 31     88% 23   30   0    
Nov 16 00:56 ENE 14 1.25 Light Snow and Fog/Mist OVC007 34 31     88% 25   30.03 30.08 0   0
Nov 16 00:48 E 14 0.75 Light Snow and Fog/Mist VV007 34 31     88% 25   30.05   0    
Nov 16 00:36 E 13 1 Light Snow and Fog/Mist VV008 34 31     88% 25   30.06   0    
Nov 15 23:56 E 10 0.5 Snow and Fog VV005 33 31     92% 25   30.13 30.17 0    
Nov 15 23:36 ENE 14 0.5 Snow and Fog VV005 33 30     88% 23   30.1   0    
Nov 15 22:56 NNE 6 0.5 Snow and Fog VV004 31 28     89% 25   30.18 30.23 0    
Nov 15 21:56 NNE 8 0.5 Snow and Fog VV007 29 26     89% 21   30.23 30.28 0 0  
Nov 15 20:56 N 5 0.5 Snow OVC007 28 25     88% 23   30.3 30.35 0    
Nov 15 20:42 N 5 1 Snow OVC011 28 25     88% 23   30.32   0    
Nov 15 20:33 N 5 2 Snow OVC009 29 25     85% 24   30.33   0    
Nov 15 20:22 NNW 3 2 Snow OVC011 28 25     88% 24   30.34   0    
Nov 15 20:03 Calm 2 Snow OVC021 30 22     71%     30.35   0    
Nov 15 19:56 Calm 2 Snow OVC035 30 21     69%     30.35 30.4 0    
Nov 15 18:56 NNE 3 10 Cloudy OVC030 31 18     58% 28   30.38 30.43      
Nov 15 18:16 NNE 5 10 Cloudy OVC031 30 15     53% 25   30.39        
Nov 15 17:56 NNE 5 10 Cloudy OVC025 31 13     47% 26   30.41 30.45      
Nov 15 16:56 NE 7 10 Mostly Cloudy BKN022 30 10     43% 23   30.4 30.45      
Nov 15 15:56 E 5 10 Cloudy OVC180 30 7     37% 25   30.44 30.49      
Nov 15 14:56 ENE 5 10 Cloudy OVC180 31 5     33% 26   30.47 30.52      
Nov 15 13:56 Calm 10 Clear CLR 31 3     30%     30.49 30.54      
Nov 15 12:56 Calm 10 Cloudy OVC200 30 5     34%     30.52 30.57      
Nov 15 11:56 Calm 10 Clear CLR 28 6     39%     30.55 30.6      
Nov 15 10:56 Calm 10 Cloudy OVC200 26 7     44%     30.59 30.64      
Nov 15 09:56 N 3 10 Cloudy OVC200 26 7     44% 22   30.59 30.64      
Nov 15 08:56 NNW 5 10 Mostly Cloudy BKN200 24 7     48% 18   30.63 30.68      
Nov 15 07:56 NNW 6 10 Mostly Cloudy BKN200 22 7     52% 14   30.61 30.66      
Nov 15 06:56 NW 3 10 Clear CLR 21 7     54% 16   30.59 30.64      
Nov 15 05:56 Calm 10 Clear CLR 21 7     54%     30.59 30.64      
Nov 15 04:56 3 10 Clear CLR 21 7     54% 16   30.6 30.65      
Nov 15 03:56 WNW 3 10 Clear CLR 20 7     57% 15   30.61 30.66      
Nov 15 02:56 WNW 6 10 Clear CLR 20 7     57% 12   30.6 30.64      
Nov 15 01:56 WNW 5 10 Clear CLR 21 6     52% 15   30.62 30.66      
Nov 15 00:56 NW 9 10 Clear CLR 22 6     50% 12   30.58 30.63      
Nov 14 23:56 N 6 10 Clear CLR 22 6     50% 14   30.58 30.63      
Nov 14 22:56 NNW 9 10 Clear CLR 23 6     48% 13   30.6 30.65      
Nov 14 21:56 NW 9 10 Mostly Clear FEW100 24 6     46% 14   30.58 30.63      
Nov 14 20:56 N 9 10 Clear CLR 25 6     44% 16   30.55 30.6      
Nov 14 19:56 N 13 10 Partly Cloudy SCT130 27 4     37% 16   30.52 30.57      
Nov 14 18:56 NNW 10 10 Partly Cloudy SCT130 29 3     32% 20   30.5 30.55      
Nov 14 17:56 NW 13 10 Partly Cloudy FEW034 SCT130 29 4     34% 19   30.46 30.51      
Nov 14 16:56 NW 8 10 Clear CLR 30 4     32% 22   30.42 30.47      
Nov 14 15:56 NW 22 10 Partly Cloudy and Windy FEW065 SCT250 32 2     27% 19   30.38 30.42      
Nov 14 14:56 W 18 10 Clear CLR 34 4     28% 23   30.34 30.39      
Nov 14 13:56 WNW 22 10 Partly Cloudy and Windy FEW065 SCT250 34 4     28% 22   30.31 30.36      
Nov 14 12:56   10 Partly Cloudy SCT065 SCT250 34 4     28%     30.29 30.34      
Nov 14 11:56   10 Clear CLR 35 4     26%     30.29 30.34      
Nov 14 10:56   10 Partly Cloudy SCT065 35 6     29%     30.27 30.32      
Nov 14 09:56 WNW 23 10 Partly Cloudy and Windy SCT060 35 9     33% 23   30.25 30.3      
Nov 14 08:56   10 Partly Cloudy SCT060 34 9     35%     30.24 30.28      
Nov 14 07:56 WNW 11 10 Partly Cloudy SCT055 34 15     45% 26   30.21 30.26      
Nov 14 06:56 W 8 10 Clear CLR 31 16     53% 23   30.17 30.21      
Nov 14 05:56 W 10 10 Clear CLR 31 15     51% 22   30.13 30.18      
Nov 14 04:56 W 7 10 Clear CLR 31 14     49% 24   30.12 30.16      
Nov 14 03:56 W 9 10 Clear CLR 32 15     49% 24   30.09 30.14      
Nov 14 02:56 WNW 13 10 Clear CLR 33 13     43% 24   30.07 30.12      
Nov 14 01:56 NW 21 10 Clear and Windy CLR 34 14     43% 22   30.08        
Nov 14 00:56 NW 20 10 Mostly Cloudy and Windy BKN050 36 17     46% 25   30.02 30.07     0
Nov 13 23:56 WNW 18 10 Cloudy OVC049 39 22     50% 30   29.98 30.02 0    
Nov 13 22:56 W 18 10 Cloudy BKN035 OVC047 42 28     57% 34   29.94 29.98      
Nov 13 21:56 W 10 10 Partly Cloudy SCT110 42 31     64% 36   29.9 29.93      
Nov 13 20:56 W 11 10 Mostly Cloudy BKN110 42 32     67% 36   29.87 29.92      
Nov 13 19:56 W 13 10 Cloudy OVC110 43 33     68% 36   29.85 29.89      
Nov 13 18:56   10 Partly Cloudy FEW015 SCT110 43 33     68%     29.83 29.88     0
Nov 13 17:56 WNW 10 10 Mostly Cloudy BKN100 BKN120 44 37     76% 39   29.79 29.83      
Nov 13 16:56 WNW 8 10 Mostly Cloudy SCT024 BKN040 44 39     82% 40   29.77 29.81      
Nov 13 15:56 WNW 11 10 Mostly Cloudy FEW015 BKN028 44 43     96% 38   29.73 29.77   0  
Nov 13 14:56 WNW 10 7 Cloudy OVC009 45 43     93% 40   29.72 29.76 0    
Nov 13 14:03 NW 11 5 Fog/Mist OVC005 44 43     96% 38   29.7   0    
Nov 13 13:56 NW 14 1.5 Light Rain and Fog/Mist OVC005 44 43     96% 37   29.7 29.74 0    
Nov 13 13:46 NW 15 1.5 Light Rain and Fog/Mist BKN005 OVC015 44 43     96% 37   29.7   0    
Nov 13 12:56 NNW 17 1.5 Light Rain and Fog/Mist OVC004 46 45     96% 39   29.71 29.75 0   1
Nov 13 11:56 NNE 10 1.5 Light Rain and Fog/Mist OVC004 53 51     93%     29.76 29.8 0    
Nov 13 11:16 NNE 9 1.5 Heavy Rain and Fog/Mist OVC003 54 51     90%     29.82   0    
Nov 13 11:04 NE 5 1.5 Rain and Fog/Mist OVC008 54 51     90%     29.82   0    
Nov 13 10:56 E 6 3 Rain and Fog/Mist OVC008 54 51     90%     29.83 29.87 0    
Nov 13 10:38 ESE 8 4 Rain and Fog/Mist OVC010 54 51     90%     29.85   0    
Nov 13 09:56 SE 3 3 Rain and Fog/Mist BKN007 OVC015 52 49     89%     29.91 29.95 0 0  
Nov 13 09:27 ESE 6 4 Light Rain and Fog/Mist BKN008 OVC012 51 48     89%     29.95   0    
Nov 13 09:11 SE 5 4 Rain and Fog/Mist SCT006 OVC011 50 48     93%     29.97   0    
Nov 13 08:56 SSE 5 3 Rain and Fog/Mist BKN006 OVC010 50 47     89%     29.98 30.03 0    
Nov 13 07:56 SSE 8 3 Rain and Fog/Mist OVC005 49 46     90% 45   30.03 30.07 0    
Nov 13 07:14 SE 13 3 Light Rain and Fog/Mist BKN007 OVC032 48 45     89% 43   30.05   0    
Nov 13 07:07 ESE 9 6 Rain and Fog/Mist SCT007 BKN012 OVC024 48 45     89% 44   30.06   0    
Nov 13 06:56 ESE 10 7 Light Rain BKN007 BKN014 OVC026 48 45     89% 43   30.06 30.1 0   0
Nov 13 05:56 ESE 6 6 Rain and Fog/Mist BKN008 BKN028 OVC038 47 44     90% 44   30.12 30.16 0    
Nov 13 05:52 ESE 6 8 Light Rain BKN008 BKN028 OVC038 46 45     93% 43   30.12   0    
Nov 13 05:46 ESE 7 7 Light Rain SCT008 BKN030 OVC038 47 44     90% 44   30.12   0    
Nov 13 04:56 SE 7 7 Rain OVC009 46 42     86% 42   30.16 30.21 0    
Nov 13 04:03 SE 10 6 Rain and Fog/Mist BKN011 BKN018 OVC022 45 41     86% 40   30.2   0    
Nov 13 03:56 ESE 8 7 Light Rain BKN015 BKN019 OVC046 45 41     86% 41   30.2 30.24 0 0  
Nov 13 03:51 ESE 10 8 Light Rain SCT012 BKN019 OVC048 45 41     87% 39   30.2   0    
Nov 13 03:23 ESE 10 8 Light Rain FEW017 SCT028 OVC050 44 40     85% 39   30.22   0    
Nov 13 02:56 SE 8 6 Light Rain and Fog/Mist BKN020 OVC025 44 40     85% 40   30.24 30.28 0    
Nov 13 01:56 ESE 6 7 Light Rain BKN028 OVC034 42 38     85% 38   30.28 30.32 0    
Nov 13 00:56 SSE 5 10 Light Rain BKN036 OVC047 43 35     73% 40   30.31 30.35 0   0
Nov 12 23:56 SE 6 10 Cloudy BKN032 OVC100 43 33     68% 39   30.33 30.37      
Nov 12 22:56 Calm 10 Cloudy FEW035 OVC100 40 32     73%     30.35 30.4      
Nov 12 21:56 SSE 5 10 Mostly Cloudy BKN120 42 31     64% 39   30.37 30.41      
Nov 12 20:56 S 5 10 Mostly Cloudy BKN110 42 30     62% 39   30.37 30.42      
Nov 12 19:56 S 7 10 Mostly Clear FEW100 42 28     57% 38   30.36 30.4      
Nov 12 18:56 S 6 10 Mostly Clear FEW250 42 28     57% 38   30.37 30.41      
Nov 12 17:56 SSE 7 10 Mostly Clear FEW250 43 27     53% 39   30.38 30.42      
Nov 12 16:56 SSW 3 10 Clear CLR 42 25     50% 40   30.38 30.42      
Nov 12 15:56 S 6 10 Mostly Clear FEW250 45 25     45% 42   30.37 30.42      
Nov 12 14:56 SW 8 10 Mostly Clear FEW250 48 25     40% 44   30.35 30.4      
Nov 12 13:56 SSW 8 10 Mostly Clear FEW250 49 24     37% 45   30.35 30.4      
Nov 12 12:56 SW 11 10 Mostly Clear FEW250 49 25     39% 44   30.36 30.41      
Nov 12 11:56 SW 9 10 Mostly Clear FEW250 47 25     42% 43   30.39 30.44      
Nov 12 10:56 SSW 6 10 Clear CLR 44 25     47% 41   30.41 30.46      
Nov 12 09:56 WSW 3 10 Clear CLR 41 24     51% 39   30.42 30.47      
Nov 12 08:56 W 3 10 Clear CLR 36 26     67% 33   30.43 30.48      
Nov 12 07:56 Calm 10 Mostly Clear FEW200 29 23     78%     30.42 30.46      
Nov 12 06:56 Calm 10 Partly Cloudy SCT200 25 20     81%     30.42 30.46      
Nov 12 05:56 Calm 10 Clear CLR 24 19     81%     30.4 30.45      
Nov 12 04:56 Calm 10 Clear CLR 25 20     81%     30.39 30.44      
Nov 12 03:56 Calm 10 Clear CLR 25 19     78%     30.38 30.43      
Nov 12 02:56 Calm 10 Clear CLR 26 20     77%     30.37 30.42      
Nov 12 01:56 Calm 10 Clear CLR 27 19     72%     30.37 30.42      
Nov 12 00:56 Calm 10 Clear CLR 27 20     75%     30.36 30.4      
Nov 11 23:56 Calm 10 Clear CLR 29 18     63%     30.35 30.4      
Nov 11 22:56 Calm 10 Clear CLR 31 19     61%     30.35 30.39      
Nov 11 21:56 Calm 10 Clear CLR 33 18     53%     30.34 30.39      
Nov 11 20:56 W 6 10 Clear CLR 34 18     51% 29   30.32 30.37      
Nov 11 19:56 W 5 10 Clear CLR 35 17     47% 31   30.31 30.36      
Nov 11 18:56 W 8 10 Clear CLR 37 16     42% 31   30.3 30.34      
Nov 11 17:56 W 8 10 Clear CLR 38 15     39% 32   30.28 30.32      
Nov 11 16:56 W 7 10 Clear CLR 40 14     34% 35   30.25 30.3      
Nov 11 15:56 W 9 10 Clear CLR 42 14     32% 37   30.24 30.28      
Nov 11 14:56 W 13 10 Clear CLR 44 15     31% 38   30.22 30.26      
Nov 11 13:56 WNW 14 10 Clear CLR 45 13     27% 39   30.22 30.26      
Nov 11 12:56 WNW 15 10 Clear CLR 44 15     31% 37   30.22 30.26      
Nov 11 11:56 WNW 10 10 Clear CLR 43 18     36% 37   30.23 30.27      
Nov 11 10:56 WNW 8 10 Clear CLR 41 17     38% 36   30.25 30.29      
Nov 11 09:56 WNW 13 10 Mostly Clear FEW050 39 18     42% 31   30.26 30.3      
Nov 11 08:56 W 14 10 Clear CLR 37 17     44% 28   30.26 30.3      
Nov 11 07:56 WNW 8 10 Clear CLR 35 16     45% 29   30.26 30.3      
Nov 11 06:56 W 5 10 Clear CLR 32 16     51% 27   30.23 30.27      
Nov 11 05:56 W 9 10 Clear CLR 33 16     49% 25   30.2 30.25      
Nov 11 04:56 W 8 10 Clear CLR 34 16     47% 27   30.19 30.23      
Nov 11 03:56 W 10 10 Clear CLR 35 17     47% 27   30.15 30.2      
Nov 11 02:56 W 11 10 Clear CLR 35 19     52% 27   30.14 30.18      
Nov 11 01:56 W 11 10 Clear CLR 35 21     56% 27   30.1 30.14      
Nov 11 00:56 WSW 8 10 Clear CLR 35 21     56% 29   30.07 30.11      
Nov 10 23:56 WSW 9 10 Clear CLR 35 20     54% 28   30.05 30.09      
Nov 10 22:56 WSW 8 10 Clear CLR 35 19     52% 29   30.02 30.06      
Nov 10 21:56 W 13 10 Clear CLR 36 18     48% 27   30.01 30.05      
Nov 10 20:56 WSW 10 10 Clear CLR 36 18     48% 29   30 30.04      
Nov 10 19:56 W 9 10 Clear CLR 36 16     44% 29   29.99 30.03      
Nov 10 18:56 W 11 10 Clear CLR 37 14     38% 29   29.97 30.01      
Nov 10 17:56 W 9 10 Clear CLR 38 14     37% 31   29.95 30      
Nov 10 16:56 WNW 11 10 Mostly Clear FEW075 39 14     36% 32   29.92 29.96      
Nov 10 15:56 W 20 10 Mostly Clear and Windy FEW055 FEW090 42 15     33% 33   29.87 29.91      
Nov 10 14:56 W 18 10 Partly Cloudy FEW055 SCT090 43 19     38% 35   29.83 29.87      
Nov 10 13:56 W 22 10 Mostly Cloudy and Windy BKN060 BKN075 45 23     42% 37   29.79 29.83      
Nov 10 12:56 W 20 10 Mostly Clear and Windy FEW050 48 26     42% 41   29.75 29.79     0
Nov 10 11:56 W 16 10 Cloudy FEW016 OVC055 45 30     56% 38   29.73 29.77 0    
Nov 10 11:54 W 17 10 Cloudy FEW016 OVC055 45 30     57% 37   29.73   0    
Nov 10 11:03 W 14 10 Light Rain and Fog/Mist FEW016 BKN029 OVC036 45 37     74% 39   29.72   0    
Nov 10 10:56 WNW 20 3 Light Rain and Fog/Mist BKN008 OVC030 45 38     76% 37   29.72 29.76 0    
Nov 10 10:53 W 18 3 Light Rain and Fog/Mist BKN008 OVC030 45 39     81% 37   29.72   0    
Nov 10 10:13 W 9 10 Cloudy SCT008 BKN013 OVC030 47 42     83% 43   29.7        
Nov 10 10:03 W 10 10 Fog/Mist FEW014 BKN035 OVC045 47 42     83% 42   29.7        
Nov 10 09:56 W 13 10 Fog/Mist BKN005 OVC012 47 42     83% 41   29.7 29.74 0 0  
Nov 10 09:54 WNW 13 10 Fog/Mist BKN005 OVC012 46 43     87% 41   29.7   0    
Nov 10 09:39 W 10 3 Light Rain and Fog/Mist SCT007 BKN010 OVC024 47 43     86% 42   29.7   0    
Nov 10 09:34 WNW 13 2 Light Rain and Fog/Mist BKN007 OVC012 47 43     86% 41   29.7   0    
Nov 10 08:56 WNW 5 3 Fog/Mist BKN005 OVC020 47 44     90% 45   29.7 29.74      
Nov 10 07:56 W 6 3 Fog/Mist BKN007 OVC011 47 44     90% 44   29.71 29.75      
Nov 10 07:22 W 6 6 Fog/Mist BKN008 OVC013 46 44     93% 43   29.7        
Nov 10 07:11 WNW 6 6 Fog/Mist SCT006 OVC013 46 44     93% 43   29.7        
Nov 10 07:03 WNW 6 9 Fog/Mist OVC013 46 44     93% 43   29.69        
Nov 10 06:56 NW 7 6 Fog/Mist BKN006 OVC013 46 44     93% 42   29.69 29.73     0
Nov 10 06:54 NW 7 6 Fog/Mist BKN006 OVC013 46 45     93% 43   29.69        
Nov 10 06:46 NNW 5 8 Cloudy FEW006 BKN010 OVC013 47 44     90% 45   29.69        
Nov 10 05:56 NNW 7 3 Fog/Mist OVC009 47 44     90% 44   29.67 29.71 0    
Nov 10 05:13 N 5 3 Fog/Mist OVC009 47 44     90% 45   29.68   0    
Nov 10 05:03 NNE 6 2.5 Light Rain and Fog/Mist OVC009 47 44     90% 44   29.68   0    
Nov 10 04:56 NNE 6 2.5 Light Rain and Fog/Mist OVC010 47 44     90% 44   29.69 29.73 0    
Nov 10 03:56 NNE 11 6 Fog/Mist OVC010 48 44     86% 43   29.68 29.72   0  
Nov 10 03:43 NNE 7 9 Cloudy OVC010 48 44     86% 45   29.69        
Nov 10 03:16 NNE 9 10 Cloudy OVC009 48 44     86% 44   29.7        
Nov 10 02:56 NNE 8 10 Cloudy OVC010 48 45     89% 44   29.71 29.75 0    
Nov 10 02:03 ENE 16 8 Light Rain OVC011 49 45     86% 43   29.73   0    
Nov 10 01:56 ENE 16 9 Light Rain BKN009 OVC014 48 45     89% 42   29.74 29.78 0    
Nov 10 01:53 NE 15 9 Light Rain OVC011 48 45     87% 42   29.75   0    
Nov 10 01:46 ENE 15 7 Light Rain BKN009 OVC013 49 45     86% 43   29.75   0    
Nov 10 00:56 ENE 15 10 Light Rain OVC010 48 45     89% 42   29.8   0   1
Nov 09 23:56 E 14 3 Heavy Rain and Fog/Mist OVC010 47 44     90% 41       0    
May 14 11:56 7 10 Cloudy OVC027 62 51     67%     29.97 30.01      
May 14 05:56 Calm 10 Clear   50 47     89%     30 30.04      
May 13 01:34 NNW 5 8 Mostly Cloudy BKN006 46 45     96% 44   30.12        
May 12 16:56 NNW 5 3 Light Rain and Fog/Mist OVC005 48 47     96% 46   30.11 30.15 0 0  
Jun 11 22:56 SW 6 10 Clear CLR 78 61     56%   78 29.91 29.94      
Jun 11 12:56 WSW 8 10 Clear CLR 83 58     43%   83 29.94 29.97      
Jun 10 08:56 SW 6 10 Clear CLR 73 53     50%   72 29.95 29.98      
Jun 09 09:56 W 7 10 Partly Cloudy SCT150 70 44     39%     29.64 29.67      
Jun 09 03:56 Calm 10 Clear   55 47     74%     29.71 29.74      
Jun 08 11:56 5 10 Clear CLR 77 47     35%   76 30 30.03      
Jun 07 16:56 ESE 8 10 Mostly Clear FEW040 70 44     39%     29.94 29.98      
Jun 07 11:56 NE 9 10 Clear CLR 66 50     56%     29.95 29.99      
Jun 06 08:48 NE 11 2 Fog/Mist OVC004 49 47     93% 44   29.82   0    
Notice The following observation data may not be complete
Jun 06 08:03   1.75 Fog/Mist BKN010 OVC014          %         0    
Jun 06 05:56 NE 16 1.5 Fog/Mist OVC009 49 46     90% 43   29.8 29.84 0    
Notice The following observation data may not be complete
Jun 06 03:56   6 Light Rain and Fog/Mist OVC010          %         0    
Jun 05 14:56 ENE 10 1.25 Fog/Mist VV004 56 53     90%     29.85 29.88